This is the latest recevied weather packets stored in our database for station/object R2AKT-13. If no packets are shown the sender has not sent any weather packets the latest 10 day(s).
| Time | Temp. | Humidity | Pressure | Rain* | Wind** | Luminosity | Snow |
|---|---|---|---|---|---|---|---|
| 1788038246 | 15° C | 74% | 998.7 hPa | - | 1.34 m/s, 173° | - | - |
| 1788037651 | 15° C | 74% | 998.7 hPa | - | 1.34 m/s, 172° | - | - |
| 1788037101 | 15.56° C | 75% | 998.6 hPa | - | 1.34 m/s, 173° | - | - |
| 1788036606 | 15° C | 76% | 998.6 hPa | - | 0.89 m/s, 164° | - | - |
| 1788036076 | 15° C | 75% | 998.6 hPa | - | 0.89 m/s, 158° | - | - |
| 1788035566 | 15.56° C | 74% | 998.6 hPa | - | 1.34 m/s, 169° | - | - |
| 1788035036 | 15.56° C | 74% | 998.6 hPa | - | 1.34 m/s, 173° | - | - |
| 1788034526 | 16.11° C | 73% | 998.6 hPa | - | 0.89 m/s, 173° | - | - |
| 1788034031 | 15.56° C | 74% | 998.7 hPa | - | 1.34 m/s, 170° | - | - |
| 1788033436 | 15.56° C | 75% | 998.7 hPa | - | 0.45 m/s, 165° | - | - |
| 1788032916 | 15.56° C | 75% | 998.7 hPa | - | 0.45 m/s, 161° | - | - |
| 1788032371 | 15.56° C | 75% | 998.7 hPa | - | 0.45 m/s, 177° | - | - |
| 1788031776 | 15.56° C | 74% | 998.6 hPa | - | 0.89 m/s, 158° | - | - |
| 1788031211 | 16.11° C | 74% | 998.6 hPa | - | 0.45 m/s, 151° | - | - |
| 1788030626 | 16.11° C | 73% | 998.6 hPa | - | 0.45 m/s, 156° | - | - |
| 1788030126 | 16.11° C | 72% | 998.6 hPa | - | 0.89 m/s, 164° | - | - |
| 1788029571 | 16.11° C | 73% | 998.5 hPa | - | 0.45 m/s, 170° | - | - |
| 1788029011 | 16.11° C | 73% | 998.5 hPa | - | 0.45 m/s, 167° | - | - |
| 1788028496 | 16.11° C | 73% | 998.4 hPa | - | 0.45 m/s, 160° | - | - |
| 1788027928 | 16.11° C | 72% | 998.5 hPa | - | 0.45 m/s, 158° | - | - |
| 1788027416 | 16.67° C | 72% | 998.5 hPa | - | 0.45 m/s, 171° | - | - |
| 1788026911 | 16.67° C | 72% | 998.5 hPa | - | 0.45 m/s, 153° | - | - |
| 1788026421 | 16.67° C | 71% | 998.5 hPa | - | 0.89 m/s, 160° | - | - |
| 1788025896 | 16.67° C | 70% | 998.5 hPa | - | 0.45 m/s, 155° | - | - |
| 1788025381 | 16.67° C | 69% | 998.6 hPa | - | 0.45 m/s, 194° | - | - |
* Rain since midnight (hover to see other rain measurements)
** Current wind speed in m/s (hover to see current wind gust speed)